Location: *
(55.6049°S, 142.1985°W)
Time: 07:55:31
(UTC+00:00)

USA 267 - Pass Details

Date: 12 May 2021
Orbit: 1102 x 1106 km, 123.0° (Epoch: 08 June)

Event Time Altitude Azimuth Distance (km) Brightness Sun altitude
Rises 15:15:51 0° 52° (NE) 3,932 7.2 -16.3°
Reaches altitude 10° 15:18:23 10° 47° (NE) 2,978 6.4 -16.0°
Maximum altitude 15:24:53 59° 328° (NNW) 1,275 3.5 -15.1°
Enters shadow 15:29:39 19° 254° (WSW) 2,359 4.4 -14.4°
